| time (UTC) | temp F | wind direction | speed MPH | gust MPH | rain 1hr in | rain 24hr in | rain mn in | humidity % | barometer mb |
| 20260504203004 | 77 | 262 | 11.0 | 26.0 | 0.00 | 0.00 | 0.00 | 32 | 997.4 |
| 20260504202003 | 77 | 266 | 13.0 | 33.0 | 0.00 | 0.00 | 0.00 | 34 | 997.6 |
| 20260504201003 | 77 | 276 | 16.0 | 25.0 | 0.00 | 0.00 | 0.00 | 33 | 997.7 |
| 20260504200003 | 77 | 241 | 5.0 | 23.0 | 0.00 | 0.00 | 0.00 | 36 | 997.6 |
| 20260504194003 | 76 | 256 | 14.0 | 22.0 | 0.00 | 0.00 | 0.00 | 34 | 997.8 |
| 20260504193003 | 76 | 260 | 12.0 | 32.0 | 0.00 | 0.00 | 0.00 | 35 | 998.0 |
| 20260504192003 | 76 | 253 | 13.0 | 23.0 | 0.00 | 0.00 | 0.00 | 35 | 998.1 |
| 20260504191003 | 77 | 279 | 11.0 | 20.0 | 0.00 | 0.00 | 0.00 | 34 | 997.9 |
| 20260504190003 | 77 | 253 | 12.0 | 22.0 | 0.00 | 0.00 | 0.00 | 34 | 998.0 |
| 20260504185003 | 76 | 242 | 12.0 | 22.0 | 0.00 | 0.00 | 0.00 | 34 | 997.9 |
| 20260504184003 | 76 | 293 | 9.0 | 23.0 | 0.00 | 0.00 | 0.00 | 35 | 998.1 |
| 20260504183003 | 76 | 256 | 13.0 | 23.0 | 0.00 | 0.00 | 0.00 | 34 | 998.0 |
| 20260504182004 | 76 | 232 | 10.0 | 22.0 | 0.00 | 0.00 | 0.00 | 35 | 998.0 |
| 20260504181003 | 75 | 259 | 10.0 | 28.0 | 0.00 | 0.00 | 0.00 | 34 | 998.1 |
| 20260504180003 | 76 | 248 | 14.0 | 29.0 | 0.00 | 0.00 | 0.00 | 34 | 997.9 |
| 20260504175003 | 76 | 218 | 14.0 | 25.0 | 0.00 | 0.00 | 0.00 | 33 | 998.2 |
| 20260504174003 | 76 | 252 | 12.0 | 24.0 | 0.00 | 0.00 | 0.00 | 33 | 998.4 |
| 20260504173003 | 75 | 230 | 20.0 | 31.0 | 0.00 | 0.00 | 0.00 | 33 | 998.3 |
| 20260504172003 | 75 | 249 | 13.0 | 33.0 | 0.00 | 0.00 | 0.00 | 34 | 998.5 |
| 20260504171003 | 75 | 221 | 11.0 | 29.0 | 0.00 | 0.00 | 0.00 | 34 | 998.6 |
| 20260504151003 | 68 | 199 | 12.0 | 24.0 | 0.00 | 0.00 | 0.00 | 41 | 1000.1 |
| 20260504141003 | 64 | 193 | 11.0 | 21.0 | 0.00 | 0.00 | 0.00 | 48 | 1001.0 |
| 20260504081004 | 49 | 158 | 3.0 | 5.0 | 0.00 | 0.00 | 0.00 | 73 | 1005.3 |
| 20260504050003 | 54 | 29 | 2.0 | 5.0 | 0.00 | 0.00 | 0.00 | 73 | 1006.8 |
| 20260504044003 | 56 | 23 | 4.0 | 9.0 | 0.00 | 0.00 | 0.00 | 66 | 1006.6 |
| 20260504043003 | 57 | 26 | 5.0 | 8.0 | 0.00 | 0.00 | 0.00 | 60 | 1006.7 |
| 20260504042003 | 57 | 36 | 4.0 | 12.0 | 0.00 | 0.00 | 0.00 | 54 | 1006.7 |
| 20260504040003 | 58 | 150 | 2.0 | 3.0 | 0.00 | 0.00 | 0.00 | 52 | 1006.3 |
| 20260504034003 | 59 | 218 | 1.0 | 3.0 | 0.00 | 0.00 | 0.00 | 50 | 1006.4 |
| 20260504033003 | 59 | 156 | 1.0 | 5.0 | 0.00 | 0.00 | 0.00 | 50 | 1006.4 |
| 20260504032003 | 60 | 242 | 1.0 | 6.0 | 0.00 | 0.00 | 0.00 | 49 | 1006.2 |
| 20260504031003 | 60 | 159 | 1.0 | 5.0 | 0.00 | 0.00 | 0.00 | 49 | 1006.5 |
| 20260504025003 | 61 | 195 | 1.0 | 5.0 | 0.00 | 0.00 | 0.00 | 49 | 1006.4 |
| 20260504024003 | 61 | 179 | 2.0 | 6.0 | 0.00 | 0.00 | 0.00 | 48 | 1006.4 |
| 20260504023003 | 62 | 186 | 2.0 | 6.0 | 0.00 | 0.00 | 0.00 | 48 | 1006.3 |
| 20260504021003 | 62 | 176 | 1.0 | 3.0 | 0.00 | 0.00 | 0.00 | 48 | 1006.3 |
| 20260504020003 | 62 | 186 | 1.0 | 6.0 | 0.00 | 0.00 | 0.00 | 48 | 1006.3 |
| 20260504015003 | 63 | 130 | 1.0 | 2.0 | 0.00 | 0.00 | 0.00 | 48 | 1006.3 |
| 20260504014003 | 64 | 161 | 1.0 | 6.0 | 0.00 | 0.00 | 0.00 | 46 | 1006.1 |
| 20260504013003 | 65 | 180 | 1.0 | 5.0 | 0.00 | 0.00 | 0.00 | 44 | 1006.1 |
| 20260504012003 | 65 | 237 | 2.0 | 5.0 | 0.00 | 0.00 | 0.00 | 43 | 1006.1 |
| 20260504011003 | 66 | 250 | 2.0 | 8.0 | 0.00 | 0.00 | 0.00 | 41 | 1005.9 |
| 20260504010003 | 67 | 263 | 5.0 | 10.0 | 0.00 | 0.00 | 0.00 | 40 | 1005.9 |
| 20260504005004 | 67 | 277 | 4.0 | 13.0 | 0.00 | 0.00 | 0.00 | 39 | 1005.8 |
| 20260504003004 | 69 | 283 | 6.0 | 14.0 | 0.00 | 0.00 | 0.00 | 37 | 1005.9 |
| 20260504002003 | 69 | 266 | 7.0 | 16.0 | 0.00 | 0.00 | 0.00 | 36 | 1005.7 |
| 20260504001003 | 70 | 287 | 5.0 | 10.0 | 0.00 | 0.00 | 0.00 | 37 | 1005.7 |
| 20260504000004 | 70 | 236 | 5.0 | 12.0 | 0.00 | 0.00 | 0.00 | 37 | 1005.5 |
| 20260503235003 | 70 | 219 | 7.0 | 13.0 | 0.00 | 0.00 | 0.00 | 38 | 1005.6 |
| 20260503234003 | 68 | 207 | 5.0 | 13.0 | 0.00 | 0.00 | 0.00 | 46 | 1005.6 |
| 20260503233003 | 68 | 194 | 7.0 | 16.0 | 0.00 | 0.00 | 0.00 | 45 | 1005.5 |
| 20260503232003 | 68 | 195 | 5.0 | 24.0 | 0.00 | 0.00 | 0.00 | 45 | 1005.7 |
| 20260503231004 | 69 | 205 | 9.0 | 16.0 | 0.00 | 0.00 | 0.00 | 44 | 1005.5 |
| 20260503230003 | 68 | 187 | 10.0 | 18.0 | 0.00 | 0.00 | 0.00 | 43 | 1005.8 |
| 20260503225003 | 68 | 206 | 10.0 | 18.0 | 0.00 | 0.00 | 0.00 | 43 | 1005.7 |
| 20260503224004 | 68 | 212 | 10.0 | 16.0 | 0.00 | 0.00 | 0.00 | 43 | 1006.0 |
| 20260503223003 | 69 | 197 | 10.0 | 18.0 | 0.00 | 0.00 | 0.00 | 43 | 1005.7 |
| 20260503222004 | 69 | 202 | 11.0 | 17.0 | 0.00 | 0.00 | 0.00 | 43 | 1005.9 |
| 20260503221004 | 70 | 198 | 7.0 | 20.0 | 0.00 | 0.00 | 0.00 | 42 | 1005.7 |
| 20260503220003 | 69 | 205 | 10.0 | 18.0 | 0.00 | 0.00 | 0.00 | 41 | 1006.0 |
| 20260503215003 | 69 | 206 | 8.0 | 15.0 | 0.00 | 0.00 | 0.00 | 43 | 1006.1 |
| 20260503214003 | 68 | 200 | 9.0 | 18.0 | 0.00 | 0.00 | 0.00 | 44 | 1006.3 |
| 20260503213004 | 68 | 188 | 9.0 | 17.0 | 0.00 | 0.00 | 0.00 | 44 | 1006.6 |
| 20260503212004 | 69 | 186 | 12.0 | 17.0 | 0.00 | 0.00 | 0.00 | 43 | 1006.5 |
| 20260503211003 | 68 | 199 | 13.0 | 20.0 | 0.00 | 0.00 | 0.00 | 43 | 1006.6 |
| 20260503210004 | 69 | 195 | 9.0 | 17.0 | 0.00 | 0.00 | 0.00 | 43 | 1006.7 |
| 20260503205003 | 68 | 220 | 12.0 | 22.0 | 0.00 | 0.00 | 0.00 | 43 | 1006.8 |